Meath Environmental Platform

Observations for Trim Patrick St

Time AQI Temp °C Hum % Pres Pa CO μg/m³ H₂S μg/m³ NO μg/m³ NO₂ μg/m³ O₃ μg/m³ SO₂ μg/m³ PM1 μg/m³ PM2.5 μg/m³ PM10 μg/m³
Thursday 27 August 2026
09:50 2 20.1 78 38,460 0.05 0 1.17 12.48 38.75 0.22 20.86 29.31 29.92
09:49 2 20.1 78 38,460 0.06 0 1.61 11.9 39.11 1.04 20 27.9 30.69
09:48 2 20.1 78 38,460 0.05 0 1.57 9.57 41.25 0.79 20 28.59 31.45
09:47 2 20.1 78 38,460 0.05 0 1.8 17.38 37.2 0.12 22.57 31.41 33.43
09:45 2 20.1 78 38,460 0.07 0 1.55 12.3 38.48 0.33 22.57 33.57 37.07
09:44 2 20.1 78 38,460 0.05 0 1.13 11.33 38.28 0.62 22.57 32.11 33.43
09:43 2 20.1 78 38,460 0.07 0 1.4 11.8 40.27 1.06 21.72 32.11 33.43
09:42 2 20.1 78 38,460 0.05 0 1.49 8.8 37.52 1.69 22.57 32.1 33.39
09:41 2 20.1 78 38,460 0.06 0 1.76 30.28 32.58 0 21.72 32.86 34.94
09:38 2 20.1 78 38,460 0.06 0 1.87 10.97 39.39 0.44 23.43 33.49 36.18
09:34 2 20.1 78 38,460 0.07 0 2.42 11.95 35.76 0.8 21.72 32.1 33.39
09:33 2 20.1 78 38,460 0.06 0 2.09 8.42 40.41 1.64 20.86 30.66 33.33
09:32 2 20.1 78 38,460 0.05 0 1.86 7.5 45.83 0.92 21.72 32.07 34.74
09:31 2 20.1 78 38,460 0.08 0 2.11 8.62 39.73 0.64 21.72 32.07 33.33
09:30 2 20.1 78 38,460 0.08 0 1.39 13.35 39.31 0.32 22.57 33.52 37.66
09:29 2 20.1 78 38,460 0.1 0 1.53 12.14 21.93 1.95 22.57 32.06 34
09:28 2 20.1 78 38,460 0.08 0 1.5 10.59 34.21 1.05 22.57 32.07 34.03
09:27 2 20.1 78 38,460 0.07 0 1.19 6.88 45.14 0.59 20.86 32.07 34.03
09:26 2 20.1 78 38,460 0.11 0 1.16 9.02 42.66 0.14 22.57 33.52 36.25
09:25 2 20.1 78 38,460 0.12 0 1.31 8.55 41.99 0.44 22.57 34.17 36.81